Location: Gro�bocka
(50.8204°N, 11.9702°E)
Time: 06:23:42
(UTC+00:00)

Tianhe-1 - Visible Passes

Search period start: 24 June 2021 00:00
Search period end: 04 July 2021 00:00
Orbit: 375 x 386 km, 41.5° (Epoch: 23 June)

Date Brightness Start Highest point End Pass type
(mag) Time Alt. Az. Time Alt. Az. Time Alt. Az.
24 Jun 3.2 02:00:35 10° SSW 02:02:09 13° SSE 02:03:45 10° SE visible
25 Jun 3.5 01:01:56 10° SSE 01:01:56 10° SSE 01:02:07 10° SSE visible
26 Jun 3.0 01:35:38 13° SSW 01:36:30 15° S 01:38:22 10° SE visible
27 Jun 3.0 02:09:47 10° SW 02:11:39 15° S 02:13:32 10° SSE visible
28 Jun 3.0 01:11:12 15° S 01:11:12 15° S 01:12:43 10° SE visible
29 Jun 3.0 01:45:18 13° SSW 01:45:52 13° S 01:47:28 10° SSE visible
